Time,TemperatureF,DewpointF,PressureIn,WindDirection,WindDirectionDegrees,WindSpeedMPH,WindSpeedGustMPH,Humidity,HourlyPrecipIn,Conditions,Clouds,dailyrainin,SoftwareType,DateUTC
2013-08-29 00:01:00,72.0,68.2,30.01,East,90,0.0,0.0,88,0.00,,,0.00,WUHU21623XXSP,2013-08-29 04:01:00,
2013-08-29 00:02:00,72.0,68.2,30.01,South,180,0.0,0.0,88,0.00,,,0.00,WUHU21623XXSP,2013-08-29 04:02:00,
2013-08-29 00:07:00,71.8,68.0,30.01,ESE,112,0.0,0.0,88,0.00,,,0.00,WUHU21623XXSP,2013-08-29 04:07:00,
2013-08-29 00:12:00,71.8,68.0,30.01,ESE,112,0.0,0.0,88,0.00,,,0.00,WUHU21623XXSP,2013-08-29 04:12:00,
2013-08-29 00:17:00,71.4,67.7,30.01,ESE,112,0.0,0.0,88,0.00,,,0.00,WUHU21623XXSP,2013-08-29 04:17:00,
2013-08-29 00:22:00,71.4,67.7,30.01,NNE,22,0.0,0.0,88,0.00,,,0.00,WUHU21623XXSP,2013-08-29 04:22:00,
2013-08-29 00:27:00,71.4,67.7,30.01,SSW,202,0.0,0.0,88,0.00,,,0.00,WUHU21623XXSP,2013-08-29 04:27:00,
2013-08-29 00:32:00,71.2,67.5,30.00,ESE,112,0.0,0.0,88,0.00,,,0.00,WUHU21623XXSP,2013-08-29 04:32:00,
2013-08-29 00:37:00,71.2,67.5,30.00,South,180,0.0,0.0,88,0.00,,,0.00,WUHU21623XXSP,2013-08-29 04:37:00,
2013-08-29 00:42:00,71.2,67.5,30.00,East,90,0.0,0.0,88,0.00,,,0.00,WUHU21623XXSP,2013-08-29 04:42:00,
2013-08-29 00:47:00,71.2,67.5,30.00,East,90,0.0,0.0,88,0.00,,,0.00,WUHU21623XXSP,2013-08-29 04:47:00,
2013-08-29 00:52:00,71.2,67.5,30.00,East,90,0.0,0.0,88,0.00,,,0.00,WUHU21623XXSP,2013-08-29 04:52:00,
2013-08-29 00:57:00,71.1,67.3,30.00,ESE,112,0.0,0.0,88,0.00,,,0.00,WUHU21623XXSP,2013-08-29 04:57:00,
2013-08-29 01:02:00,71.2,67.5,30.00,East,90,0.0,0.0,88,0.00,,,0.00,WUHU21623XXSP,2013-08-29 05:02:00,
2013-08-29 01:07:00,71.1,67.3,30.00,ESE,112,0.0,0.0,88,0.00,,,0.00,WUHU21623XXSP,2013-08-29 05:07:00,
2013-08-29 01:12:00,70.9,67.1,29.99,ESE,112,0.0,0.0,88,0.00,,,0.00,WUHU21623XXSP,2013-08-29 05:12:00,
2013-08-29 01:17:00,70.9,67.1,29.99,South,180,0.0,0.0,88,0.00,,,0.00,WUHU21623XXSP,2013-08-29 05:17:00,
2013-08-29 01:22:00,70.9,67.1,29.99,East,90,0.0,0.0,88,0.00,,,0.00,WUHU21623XXSP,2013-08-29 05:22:00,
2013-08-29 01:27:00,70.9,67.1,29.99,East,90,1.2,1.3,88,0.00,,,0.00,WUHU21623XXSP,2013-08-29 05:27:00,
2013-08-29 01:32:00,70.9,67.1,29.99,ESE,112,0.0,1.3,88,0.00,,,0.00,WUHU21623XXSP,2013-08-29 05:32:00,
2013-08-29 01:37:00,70.7,67.0,29.99,ESE,112,0.0,1.3,88,0.00,,,0.00,WUHU21623XXSP,2013-08-29 05:37:00,
2013-08-29 01:42:00,70.7,67.0,29.99,South,180,0.0,0.0,88,0.00,,,0.00,WUHU21623XXSP,2013-08-29 05:42:00,
2013-08-29 01:47:00,70.5,66.8,29.99,South,180,0.0,0.0,88,0.00,,,0.00,WUHU21623XXSP,2013-08-29 05:47:00,
2013-08-29 01:52:00,70.5,66.8,29.99,NNE,22,0.0,0.0,88,0.00,,,0.00,WUHU21623XXSP,2013-08-29 05:52:00,
2013-08-29 01:57:00,70.3,66.6,29.99,ESE,112,0.0,0.0,88,0.00,,,0.00,WUHU21623XXSP,2013-08-29 05:57:00,
2013-08-29 02:02:00,70.2,66.4,29.99,East,90,0.0,0.0,88,0.00,,,0.00,WUHU21623XXSP,2013-08-29 06:02:00,
2013-08-29 02:07:00,70.2,66.4,29.99,ESE,112,0.0,0.0,88,0.00,,,0.00,WUHU21623XXSP,2013-08-29 06:07:00,
2013-08-29 02:12:00,70.2,66.4,29.99,ESE,112,0.0,0.0,88,0.00,,,0.00,WUHU21623XXSP,2013-08-29 06:12:00,
2013-08-29 02:17:00,70.0,66.2,29.99,South,180,0.0,0.0,88,0.00,,,0.00,WUHU21623XXSP,2013-08-29 06:17:00,
2013-08-29 02:22:00,70.0,66.2,29.99,ESE,112,0.0,0.0,88,0.00,,,0.00,WUHU21623XXSP,2013-08-29 06:22:00,
2013-08-29 02:27:00,69.8,66.1,29.98,ESE,112,0.0,0.0,88,0.00,,,0.00,WUHU21623XXSP,2013-08-29 06:27:00,
2013-08-29 02:32:00,69.8,66.1,29.99,ESE,112,0.0,0.0,88,0.00,,,0.00,WUHU21623XXSP,2013-08-29 06:32:00,
2013-08-29 02:37:00,69.6,65.9,29.99,NNE,22,0.0,0.0,88,0.00,,,0.00,WUHU21623XXSP,2013-08-29 06:37:00,
2013-08-29 02:42:00,69.6,65.9,29.99,ESE,112,0.0,0.0,88,0.00,,,0.00,WUHU21623XXSP,2013-08-29 06:42:00,
2013-08-29 02:47:00,69.6,65.9,29.99,ESE,112,0.0,0.0,88,0.00,,,0.00,WUHU21623XXSP,2013-08-29 06:47:00,
2013-08-29 02:52:00,70.0,66.2,29.99,East,90,0.0,0.0,88,0.00,,,0.00,WUHU21623XXSP,2013-08-29 06:52:00,
2013-08-29 02:57:00,70.0,66.2,29.99,South,180,0.0,0.0,88,0.00,,,0.00,WUHU21623XXSP,2013-08-29 06:57:00,
2013-08-29 03:02:00,70.0,66.2,29.99,ESE,112,0.0,0.0,88,0.00,,,0.00,WUHU21623XXSP,2013-08-29 07:02:00,
2013-08-29 03:07:00,70.0,66.2,29.99,East,90,1.4,1.7,88,0.00,,,0.00,WUHU21623XXSP,2013-08-29 07:07:00,
2013-08-29 03:12:00,69.8,66.1,30.00,ESE,112,0.0,1.7,88,0.00,,,0.00,WUHU21623XXSP,2013-08-29 07:12:00,
2013-08-29 03:17:00,69.6,65.9,29.99,ESE,112,0.0,1.7,88,0.00,,,0.00,WUHU21623XXSP,2013-08-29 07:17:00,
2013-08-29 03:22:00,69.6,65.9,29.99,SSW,202,0.0,0.0,88,0.00,,,0.00,WUHU21623XXSP,2013-08-29 07:22:00,
2013-08-29 03:27:00,69.8,66.1,30.00,South,180,0.0,0.0,88,0.00,,,0.00,WUHU21623XXSP,2013-08-29 07:27:00,
2013-08-29 03:33:00,69.8,66.1,29.99,East,90,0.0,0.0,88,0.00,,,0.00,WUHU21623XXSP,2013-08-29 07:33:00,
2013-08-29 03:38:00,69.8,66.1,29.99,ESE,112,0.0,1.0,88,0.00,,,0.00,WUHU21623XXSP,2013-08-29 07:38:00,
2013-08-29 03:43:00,69.6,65.9,29.99,ESE,112,0.0,1.0,88,0.00,,,0.00,WUHU21623XXSP,2013-08-29 07:43:00,
2013-08-29 03:48:00,69.8,66.1,29.99,East,90,0.0,0.0,88,0.00,,,0.00,WUHU21623XXSP,2013-08-29 07:48:00,
2013-08-29 03:53:00,69.8,66.1,29.99,ESE,112,0.0,0.0,88,0.00,,,0.00,WUHU21623XXSP,2013-08-29 07:53:00,
2013-08-29 03:58:00,69.8,66.1,29.99,East,90,0.0,1.7,88,0.00,,,0.00,WUHU21623XXSP,2013-08-29 07:58:00,
2013-08-29 04:03:00,69.8,66.1,29.99,ESE,112,0.0,1.7,88,0.00,,,0.00,WUHU21623XXSP,2013-08-29 08:03:00,
2013-08-29 04:08:00,69.8,66.1,29.99,South,180,0.0,0.0,88,0.00,,,0.00,WUHU21623XXSP,2013-08-29 08:08:00,
2013-08-29 04:13:00,69.8,66.1,29.99,ESE,112,0.0,0.0,88,0.00,,,0.00,WUHU21623XXSP,2013-08-29 08:13:00,
2013-08-29 04:18:00,69.6,65.9,29.99,East,90,0.0,0.0,88,0.00,,,0.00,WUHU21623XXSP,2013-08-29 08:18:00,
2013-08-29 04:23:00,69.8,66.1,29.99,ESE,112,0.0,0.0,88,0.00,,,0.00,WUHU21623XXSP,2013-08-29 08:23:00,
2013-08-29 04:28:00,69.8,66.1,29.99,ESE,112,0.0,0.0,88,0.00,,,0.00,WUHU21623XXSP,2013-08-29 08:28:00,
2013-08-29 04:33:00,69.8,66.1,29.98,ESE,112,0.0,0.0,88,0.00,,,0.00,WUHU21623XXSP,2013-08-29 08:33:00,
2013-08-29 04:38:00,69.8,66.1,29.98,South,180,0.0,0.0,88,0.00,,,0.00,WUHU21623XXSP,2013-08-29 08:38:00,
2013-08-29 04:43:00,70.2,66.4,29.98,East,90,0.0,0.0,88,0.00,,,0.00,WUHU21623XXSP,2013-08-29 08:43:00,
2013-08-29 04:48:00,70.3,66.6,29.98,ESE,112,0.0,0.0,88,0.00,,,0.00,WUHU21623XXSP,2013-08-29 08:48:00,
2013-08-29 04:53:00,70.3,66.6,29.98,ESE,112,0.0,0.0,88,0.00,,,0.00,WUHU21623XXSP,2013-08-29 08:53:00,
2013-08-29 04:58:00,70.2,66.4,29.98,ESE,112,0.0,0.0,88,0.00,,,0.00,WUHU21623XXSP,2013-08-29 08:58:00,
2013-08-29 05:03:00,70.2,66.4,29.98,South,180,0.0,0.0,88,0.00,,,0.00,WUHU21623XXSP,2013-08-29 09:03:00,
2013-08-29 05:08:00,70.2,66.4,29.98,ESE,112,0.0,0.0,88,0.00,,,0.00,WUHU21623XXSP,2013-08-29 09:08:00,
2013-08-29 05:13:00,70.2,66.4,29.98,South,180,0.0,0.0,88,0.00,,,0.00,WUHU21623XXSP,2013-08-29 09:13:00,
2013-08-29 05:18:00,70.2,66.4,29.98,East,90,0.0,0.0,88,0.00,,,0.00,WUHU21623XXSP,2013-08-29 09:18:00,
2013-08-29 05:23:00,70.2,66.4,29.98,East,90,0.0,0.0,88,0.00,,,0.00,WUHU21623XXSP,2013-08-29 09:23:00,
2013-08-29 05:28:00,70.0,66.2,29.98,ESE,112,0.0,0.0,88,0.00,,,0.00,WUHU21623XXSP,2013-08-29 09:28:00,
2013-08-29 05:33:00,69.8,66.1,29.98,East,90,0.0,0.0,88,0.00,,,0.00,WUHU21623XXSP,2013-08-29 09:33:00,
2013-08-29 05:38:00,69.6,65.9,29.98,ESE,112,0.0,0.0,88,0.00,,,0.00,WUHU21623XXSP,2013-08-29 09:38:00,
2013-08-29 05:43:00,69.6,65.9,29.98,ESE,112,0.0,0.0,88,0.00,,,0.00,WUHU21623XXSP,2013-08-29 09:43:00,
2013-08-29 05:48:00,69.6,65.9,29.98,South,180,0.0,0.0,88,0.00,,,0.00,WUHU21623XXSP,2013-08-29 09:48:00,
2013-08-29 05:53:00,69.4,65.7,29.98,ESE,112,0.0,0.0,88,0.00,,,0.00,WUHU21623XXSP,2013-08-29 09:53:00,
2013-08-29 05:58:00,69.6,65.9,29.98,ESE,112,0.0,1.9,88,0.00,,,0.00,WUHU21623XXSP,2013-08-29 09:58:00,
2013-08-29 06:03:00,69.6,65.9,29.98,ESE,112,0.0,1.9,88,0.00,,,0.00,WUHU21623XXSP,2013-08-29 10:03:00,
2013-08-29 06:08:00,69.6,65.9,29.98,ESE,112,0.0,0.0,88,0.00,,,0.00,WUHU21623XXSP,2013-08-29 10:08:00,
2013-08-29 06:13:00,69.6,65.9,29.98,ESE,112,0.0,0.0,88,0.00,,,0.00,WUHU21623XXSP,2013-08-29 10:13:00,
2013-08-29 06:18:00,69.6,65.9,29.98,ESE,112,0.0,0.0,88,0.00,,,0.00,WUHU21623XXSP,2013-08-29 10:18:00,
2013-08-29 06:23:00,69.4,65.7,29.99,ESE,112,0.0,1.3,88,0.00,,,0.00,WUHU21623XXSP,2013-08-29 10:23:00,
2013-08-29 06:28:00,69.6,65.9,29.99,East,90,0.0,1.3,88,0.00,,,0.00,WUHU21623XXSP,2013-08-29 10:28:00,
2013-08-29 06:33:00,69.6,65.9,29.98,South,180,1.2,2.7,88,0.00,,,0.00,WUHU21623XXSP,2013-08-29 10:33:00,
2013-08-29 06:38:00,69.6,65.9,29.98,ESE,112,0.0,2.7,88,0.00,,,0.00,WUHU21623XXSP,2013-08-29 10:38:00,
2013-08-29 06:43:00,69.6,65.9,29.98,North,0,0.0,1.3,88,0.00,,,0.00,WUHU21623XXSP,2013-08-29 10:43:00,
2013-08-29 06:48:00,69.6,65.9,29.98,ESE,112,0.0,0.0,88,0.00,,,0.00,WUHU21623XXSP,2013-08-29 10:48:00,
2013-08-29 06:53:00,69.6,65.9,29.98,ESE,112,0.0,0.0,88,0.00,,,0.00,WUHU21623XXSP,2013-08-29 10:53:00,
2013-08-29 06:58:00,69.6,65.9,29.99,ESE,112,0.0,0.0,88,0.00,,,0.00,WUHU21623XXSP,2013-08-29 10:58:00,
2013-08-29 07:03:00,69.4,65.7,29.99,NNE,22,0.0,0.0,88,0.00,,,0.00,WUHU21623XXSP,2013-08-29 11:03:00,
2013-08-29 07:08:00,69.4,65.7,29.99,ESE,112,0.0,0.0,88,0.00,,,0.00,WUHU21623XXSP,2013-08-29 11:08:00,
2013-08-29 07:13:00,69.4,65.7,29.99,ESE,112,0.0,0.0,88,0.00,,,0.00,WUHU21623XXSP,2013-08-29 11:13:00,
2013-08-29 07:18:00,69.3,65.5,29.99,East,90,0.0,0.0,88,0.00,,,0.00,WUHU21623XXSP,2013-08-29 11:18:00,
2013-08-29 07:23:00,69.4,65.7,30.00,East,90,1.2,1.3,88,0.00,,,0.00,WUHU21623XXSP,2013-08-29 11:23:00,
2013-08-29 07:28:00,69.4,65.7,30.00,ESE,112,0.0,1.3,88,0.00,,,0.00,WUHU21623XXSP,2013-08-29 11:28:00,
2013-08-29 07:33:00,69.4,65.7,30.00,ESE,112,0.0,1.3,88,0.00,,,0.00,WUHU21623XXSP,2013-08-29 11:33:00,
2013-08-29 07:38:00,69.6,65.9,30.00,East,90,2.6,3.0,88,0.00,,,0.00,WUHU21623XXSP,2013-08-29 11:38:00,
2013-08-29 07:43:00,70.0,66.2,30.00,ESE,112,1.7,3.0,88,0.00,,,0.00,WUHU21623XXSP,2013-08-29 11:43:00,
2013-08-29 07:48:00,70.3,66.6,30.00,ESE,112,2.1,3.0,88,0.00,,,0.00,WUHU21623XXSP,2013-08-29 11:48:00,
2013-08-29 07:53:00,70.5,66.8,30.01,East,90,0.0,2.4,88,0.00,,,0.00,WUHU21623XXSP,2013-08-29 11:53:00,
2013-08-29 07:58:00,70.9,67.1,30.01,East,90,2.1,2.4,88,0.00,,,0.00,WUHU21623XXSP,2013-08-29 11:58:00,
2013-08-29 08:03:00,71.2,67.5,30.01,East,90,0.0,2.4,88,0.00,,,0.00,WUHU21623XXSP,2013-08-29 12:03:00,
2013-08-29 08:08:00,71.4,67.7,30.01,ESE,112,1.2,15.2,88,0.00,,,0.00,WUHU21623XXSP,2013-08-29 12:08:00,
2013-08-29 08:13:00,71.8,68.0,30.01,WNW,292,0.0,15.2,88,0.00,,,0.00,WUHU21623XXSP,2013-08-29 12:13:00,
2013-08-29 08:18:00,72.0,68.2,30.01,East,90,0.0,1.7,88,0.00,,,0.00,WUHU21623XXSP,2013-08-29 12:18:00,
2013-08-29 08:23:00,72.3,68.6,30.01,ESE,112,0.0,1.3,88,0.00,,,0.00,WUHU21623XXSP,2013-08-29 12:23:00,
2013-08-29 08:28:00,72.7,68.9,30.01,East,90,0.0,2.4,88,0.00,,,0.00,WUHU21623XXSP,2013-08-29 12:28:00,
2013-08-29 08:33:00,73.0,69.3,30.01,ESE,112,0.0,2.4,88,0.00,,,0.00,WUHU21623XXSP,2013-08-29 12:33:00,
2013-08-29 08:38:00,73.2,69.5,30.01,ESE,112,1.4,1.7,88,0.00,,,0.00,WUHU21623XXSP,2013-08-29 12:38:00,
2013-08-29 08:43:00,73.6,69.8,30.01,ESE,112,0.0,1.7,88,0.00,,,0.00,WUHU21623XXSP,2013-08-29 12:43:00,
2013-08-29 08:48:00,73.9,70.2,30.01,ESE,112,0.0,0.0,88,0.00,,,0.00,WUHU21623XXSP,2013-08-29 12:48:00,
2013-08-29 08:53:00,74.3,70.6,30.01,South,180,0.0,0.0,88,0.00,,,0.00,WUHU21623XXSP,2013-08-29 12:53:00,
2013-08-29 08:58:00,75.0,70.9,30.01,ESE,112,0.0,0.0,87,0.00,,,0.00,WUHU21623XXSP,2013-08-29 12:58:00,
2013-08-29 09:03:00,75.7,71.6,30.01,ESE,112,0.0,0.0,87,0.00,,,0.00,WUHU21623XXSP,2013-08-29 13:03:00,
2013-08-29 09:08:00,76.8,72.0,30.01,South,180,0.0,1.3,86,0.00,,,0.00,WUHU21623XXSP,2013-08-29 13:08:00,
2013-08-29 12:30:00,89.2,75.9,30.00,WNW,292,1.4,1.7,65,0.00,,,0.00,WUHU21623XXSP,2013-08-29 16:30:00,
2013-08-29 12:35:00,89.8,75.0,30.01,North,0,0.0,1.7,62,0.00,,,0.00,WUHU21623XXSP,2013-08-29 16:35:00,
2013-08-29 12:40:00,90.5,74.8,30.00,WNW,292,1.2,1.7,60,0.00,,,0.00,WUHU21623XXSP,2013-08-29 16:40:00,
2013-08-29 12:45:00,91.0,75.7,30.00,WNW,292,0.0,1.3,61,0.00,,,0.00,WUHU21623XXSP,2013-08-29 16:45:00,
2013-08-29 12:50:00,90.3,76.0,30.00,West,270,0.0,1.3,63,0.00,,,0.00,WUHU21623XXSP,2013-08-29 16:50:00,
2013-08-29 12:55:00,91.0,75.7,30.00,West,270,0.0,0.0,61,0.00,,,0.00,WUHU21623XXSP,2013-08-29 16:55:00,
2013-08-29 13:00:00,92.1,76.3,30.00,WNW,292,1.2,1.3,60,0.00,,,0.00,WUHU21623XXSP,2013-08-29 17:00:00,
2013-08-29 13:05:00,91.9,76.6,30.00,North,0,0.0,1.7,61,0.00,,,0.00,WUHU21623XXSP,2013-08-29 17:05:00,
2013-08-29 13:10:00,91.6,74.6,30.00,WNW,292,0.0,1.7,58,0.00,,,0.00,WUHU21623XXSP,2013-08-29 17:10:00,
2013-08-29 13:15:00,91.8,74.8,29.99,WNW,292,1.7,1.9,58,0.00,,,0.00,WUHU21623XXSP,2013-08-29 17:15:00,
2013-08-29 13:20:00,92.7,75.7,29.99,West,270,0.0,1.9,58,0.00,,,0.00,WUHU21623XXSP,2013-08-29 17:20:00,
2013-08-29 13:25:00,92.5,75.0,29.99,North,0,1.2,1.9,57,0.00,,,0.00,WUHU21623XXSP,2013-08-29 17:25:00,
2013-08-29 13:30:00,93.0,74.9,29.99,NNE,22,0.0,1.9,56,0.00,,,0.00,WUHU21623XXSP,2013-08-29 17:30:00,
2013-08-29 13:35:00,93.4,75.8,29.99,WNW,292,0.0,1.9,57,0.00,,,0.00,WUHU21623XXSP,2013-08-29 17:35:00,
2013-08-29 13:40:00,92.8,75.3,29.99,South,180,0.0,1.3,57,0.00,,,0.00,WUHU21623XXSP,2013-08-29 17:40:00,
2013-08-29 13:45:00,93.0,75.5,29.99,North,0,1.7,1.9,57,0.00,,,0.00,WUHU21623XXSP,2013-08-29 17:45:00,
2013-08-29 13:50:00,93.2,75.7,29.98,West,270,2.3,2.7,57,0.00,,,0.00,WUHU21623XXSP,2013-08-29 17:50:00,
2013-08-29 13:55:00,91.6,73.6,29.98,SSW,202,1.2,2.7,56,0.00,,,0.00,WUHU21623XXSP,2013-08-29 17:55:00,
2013-08-29 14:00:00,91.9,74.5,29.98,North,0,0.0,2.7,57,0.00,,,0.00,WUHU21623XXSP,2013-08-29 18:00:00,
2013-08-29 14:05:00,91.9,75.0,29.98,SSW,202,1.2,1.7,58,0.00,,,0.00,WUHU21623XXSP,2013-08-29 18:05:00,
2013-08-29 14:10:00,92.3,74.8,29.98,WNW,292,1.4,1.7,57,0.00,,,0.00,WUHU21623XXSP,2013-08-29 18:10:00,
2013-08-29 14:15:00,92.7,75.7,29.98,WNW,292,0.0,1.7,58,0.00,,,0.00,WUHU21623XXSP,2013-08-29 18:15:00,
2013-08-29 14:20:00,92.8,75.9,29.98,WNW,292,0.0,0.0,58,0.00,,,0.00,WUHU21623XXSP,2013-08-29 18:20:00,
2013-08-29 14:25:00,92.8,75.9,29.98,WNW,292,0.0,0.0,58,0.00,,,0.00,WUHU21623XXSP,2013-08-29 18:25:00,
2013-08-29 14:30:00,92.5,75.0,29.98,WNW,292,0.0,0.0,57,0.00,,,0.00,WUHU21623XXSP,2013-08-29 18:30:00,
2013-08-29 14:35:00,90.7,74.9,29.97,North,0,0.0,0.0,60,0.00,,,0.00,WUHU21623XXSP,2013-08-29 18:35:00,
2013-08-29 14:40:00,90.5,75.7,29.97,SSW,202,0.0,0.0,62,0.00,,,0.00,WUHU21623XXSP,2013-08-29 18:40:00,
2013-08-29 14:45:00,90.5,75.7,29.97,SSW,202,0.0,0.0,62,0.00,,,0.00,WUHU21623XXSP,2013-08-29 18:45:00,
2013-08-29 14:50:00,90.3,75.1,29.97,ESE,112,0.0,0.0,61,0.00,,,0.00,WUHU21623XXSP,2013-08-29 18:50:00,
2013-08-29 14:55:00,90.1,75.4,29.97,WNW,292,0.0,0.0,62,0.00,,,0.00,WUHU21623XXSP,2013-08-29 18:55:00,
2013-08-29 15:00:00,90.0,75.7,29.97,North,0,0.0,1.3,63,0.00,,,0.00,WUHU21623XXSP,2013-08-29 19:00:00,
2013-08-29 15:05:00,89.8,76.0,29.96,West,270,0.0,1.3,64,0.00,,,0.00,WUHU21623XXSP,2013-08-29 19:05:00,
2013-08-29 15:10:00,91.0,77.6,29.96,North,0,0.0,0.0,64,0.00,,,0.00,WUHU21623XXSP,2013-08-29 19:10:00,
2013-08-29 15:15:00,91.9,76.1,29.95,WNW,292,0.0,0.0,60,0.00,,,0.00,WUHU21623XXSP,2013-08-29 19:15:00,
2013-08-29 15:20:00,91.8,75.9,29.95,North,0,0.0,1.9,60,0.00,,,0.00,WUHU21623XXSP,2013-08-29 19:20:00,
2013-08-29 15:25:00,90.5,76.2,29.95,West,270,0.0,1.9,63,0.00,,,0.00,WUHU21623XXSP,2013-08-29 19:25:00,
2013-08-29 15:30:00,90.3,76.5,29.95,SSW,202,1.7,1.9,64,0.00,,,0.00,WUHU21623XXSP,2013-08-29 19:30:00,
2013-08-29 15:35:00,90.7,75.8,29.95,West,270,0.0,1.9,62,0.00,,,0.00,WUHU21623XXSP,2013-08-29 19:35:00,
2013-08-29 15:40:00,90.1,75.8,29.95,WNW,292,0.0,1.9,63,0.00,,,0.00,WUHU21623XXSP,2013-08-29 19:40:00,
2013-08-29 15:45:00,89.4,76.1,29.95,West,270,0.0,0.0,65,0.00,,,0.00,WUHU21623XXSP,2013-08-29 19:45:00,
2013-08-29 15:50:00,88.9,76.0,29.94,West,270,0.0,0.0,66,0.00,,,0.00,WUHU21623XXSP,2013-08-29 19:50:00,
2013-08-29 15:55:00,87.6,76.7,29.95,NNE,22,0.0,0.0,70,0.00,,,0.00,WUHU21623XXSP,2013-08-29 19:55:00,
2013-08-29 16:00:00,86.5,76.9,29.95,East,90,0.0,0.0,73,0.00,,,0.00,WUHU21623XXSP,2013-08-29 20:00:00,
2013-08-29 16:05:00,85.3,77.3,29.95,East,90,1.4,1.9,77,0.00,,,0.00,WUHU21623XXSP,2013-08-29 20:05:00,
2013-08-29 16:10:00,84.4,77.1,29.95,East,90,1.7,1.9,79,0.00,,,0.00,WUHU21623XXSP,2013-08-29 20:10:00,
2013-08-29 16:15:00,84.2,77.4,29.95,South,180,0.0,1.9,80,0.00,,,0.00,WUHU21623XXSP,2013-08-29 20:15:00,
2013-08-29 16:20:00,84.4,77.5,29.94,SSW,202,0.0,1.9,80,0.00,,,0.00,WUHU21623XXSP,2013-08-29 20:20:00,
2013-08-29 16:25:00,84.0,77.5,29.94,East,90,0.0,0.0,81,0.00,,,0.00,WUHU21623XXSP,2013-08-29 20:25:00,
2013-08-29 16:30:00,84.4,78.3,29.94,South,180,1.7,1.9,82,0.00,,,0.00,WUHU21623XXSP,2013-08-29 20:30:00,
2013-08-29 16:35:00,85.6,79.5,29.94,East,90,2.1,2.4,82,0.00,,,0.00,WUHU21623XXSP,2013-08-29 20:35:00,
2013-08-29 16:40:00,87.1,79.0,29.94,North,0,0.0,2.4,77,0.00,,,0.00,WUHU21623XXSP,2013-08-29 20:40:00,
2013-08-29 16:45:00,87.6,79.1,29.94,SSW,202,0.0,2.4,76,0.00,,,0.00,WUHU21623XXSP,2013-08-29 20:45:00,
2013-08-29 16:50:00,88.0,79.1,29.93,North,0,0.0,0.0,75,0.00,,,0.00,WUHU21623XXSP,2013-08-29 20:50:00,
2013-08-29 16:55:00,87.6,77.5,29.94,WNW,292,0.0,0.0,72,0.00,,,0.00,WUHU21623XXSP,2013-08-29 20:55:00,
2013-08-29 17:00:00,87.8,77.6,29.93,WNW,292,0.0,0.0,72,0.00,,,0.00,WUHU21623XXSP,2013-08-29 21:00:00,
2013-08-29 17:05:00,87.1,77.4,29.93,WNW,292,0.0,0.0,73,0.00,,,0.00,WUHU21623XXSP,2013-08-29 21:05:00,
2013-08-29 17:10:00,86.7,77.1,29.93,North,0,0.0,0.0,73,0.00,,,0.00,WUHU21623XXSP,2013-08-29 21:10:00,
2013-08-29 17:15:00,86.7,77.5,29.93,North,0,0.0,0.0,74,0.00,,,0.00,WUHU21623XXSP,2013-08-29 21:15:00,
2013-08-29 17:20:00,87.1,76.6,29.93,WNW,292,0.0,0.0,71,0.00,,,0.00,WUHU21623XXSP,2013-08-29 21:20:00,
2013-08-29 17:25:00,87.1,77.4,29.93,WNW,292,0.0,0.0,73,0.00,,,0.00,WUHU21623XXSP,2013-08-29 21:25:00,
2013-08-29 17:30:00,87.1,77.4,29.92,WNW,292,0.0,0.0,73,0.00,,,0.00,WUHU21623XXSP,2013-08-29 21:30:00,
2013-08-29 17:35:00,86.7,76.6,29.92,NNE,22,1.2,4.1,72,0.00,,,0.00,WUHU21623XXSP,2013-08-29 21:35:00,
2013-08-29 17:40:00,86.2,77.3,29.92,NNE,22,0.0,4.1,75,0.00,,,0.00,WUHU21623XXSP,2013-08-29 21:40:00,
2013-08-29 17:45:00,85.8,77.0,29.92,NNE,22,0.0,0.0,75,0.00,,,0.00,WUHU21623XXSP,2013-08-29 21:45:00,
2013-08-29 17:50:00,85.6,77.2,29.92,East,90,0.0,0.0,76,0.00,,,0.00,WUHU21623XXSP,2013-08-29 21:50:00,
2013-08-29 17:55:00,85.6,78.0,29.92,East,90,1.4,2.7,78,0.00,,,0.00,WUHU21623XXSP,2013-08-29 21:55:00,
2013-08-29 18:00:00,85.6,78.0,29.92,NNE,22,0.0,2.7,78,0.00,,,0.00,WUHU21623XXSP,2013-08-29 22:00:00,
2013-08-29 18:05:00,85.6,78.8,29.92,West,270,0.0,1.7,80,0.00,,,0.00,WUHU21623XXSP,2013-08-29 22:05:00,
2013-08-29 18:10:00,85.8,79.0,29.92,WNW,292,0.0,0.0,80,0.00,,,0.00,WUHU21623XXSP,2013-08-29 22:10:00,
2013-08-29 18:15:00,85.8,77.4,29.92,North,0,0.0,0.0,76,0.00,,,0.00,WUHU21623XXSP,2013-08-29 22:15:00,
2013-08-29 18:20:00,85.8,77.0,29.92,North,0,0.0,0.0,75,0.00,,,0.00,WUHU21623XXSP,2013-08-29 22:20:00,
2013-08-29 18:25:00,85.8,77.4,29.92,WNW,292,0.0,0.0,76,0.00,,,0.00,WUHU21623XXSP,2013-08-29 22:25:00,
2013-08-29 18:30:00,85.5,76.6,29.92,WNW,292,0.0,0.0,75,0.00,,,0.00,WUHU21623XXSP,2013-08-29 22:30:00,
2013-08-29 18:45:00,84.6,76.9,29.93,East,90,1.4,1.7,78,0.00,,,0.00,WUHU21623XXSP,2013-08-29 22:45:00,
2013-08-29 18:50:00,83.8,76.6,29.93,NNE,22,0.0,1.7,79,0.00,,,0.00,WUHU21623XXSP,2013-08-29 22:50:00,
2013-08-29 18:55:00,83.3,76.9,29.94,East,90,0.0,1.7,81,0.00,,,0.00,WUHU21623XXSP,2013-08-29 22:55:00,
2013-08-29 19:00:00,82.8,76.7,29.94,ESE,112,0.0,0.0,82,0.00,,,0.00,WUHU21623XXSP,2013-08-29 23:00:00,
2013-08-29 19:05:00,82.2,76.2,29.93,East,90,0.0,0.0,82,0.00,,,0.00,WUHU21623XXSP,2013-08-29 23:05:00,
2013-08-29 19:10:00,81.7,76.0,29.94,NNE,22,0.0,3.0,83,0.00,,,0.00,WUHU21623XXSP,2013-08-29 23:10:00,
2013-08-29 19:15:00,81.5,75.9,29.93,ESE,112,0.0,3.0,83,0.00,,,0.00,WUHU21623XXSP,2013-08-29 23:15:00,
2013-08-29 19:20:00,81.1,75.8,29.94,ESE,112,0.0,1.7,84,0.00,,,0.00,WUHU21623XXSP,2013-08-29 23:20:00,
2013-08-29 19:25:00,80.8,75.5,29.94,ESE,112,0.0,1.7,84,0.00,,,0.00,WUHU21623XXSP,2013-08-29 23:25:00,
2013-08-29 19:30:00,80.4,75.5,29.93,SSW,202,0.0,0.0,85,0.00,,,0.00,WUHU21623XXSP,2013-08-29 23:30:00,
2013-08-29 19:35:00,80.4,75.5,29.94,East,90,0.0,0.0,85,0.00,,,0.00,WUHU21623XXSP,2013-08-29 23:35:00,
2013-08-29 19:40:00,79.9,75.0,29.94,East,90,0.0,1.7,85,0.00,,,0.00,WUHU21623XXSP,2013-08-29 23:40:00,
2013-08-29 19:45:00,79.5,74.6,29.94,East,90,0.0,1.7,85,0.00,,,0.00,WUHU21623XXSP,2013-08-29 23:45:00,
2013-08-29 19:50:00,79.3,74.4,29.95,East,90,0.0,0.0,85,0.00,,,0.00,WUHU21623XXSP,2013-08-29 23:50:00,
2013-08-29 19:55:00,79.0,74.5,29.95,East,90,1.4,1.7,86,0.00,,,0.00,WUHU21623XXSP,2013-08-29 23:55:00,
2013-08-29 20:00:00,79.0,74.5,29.95,West,270,0.0,1.7,86,0.00,,,0.00,WUHU21623XXSP,2013-08-30 00:00:00,
2013-08-29 20:05:00,78.6,74.1,29.95,ESE,112,0.0,1.7,86,0.00,,,0.00,WUHU21623XXSP,2013-08-30 00:05:00,
2013-08-29 20:10:00,78.4,74.3,29.95,ESE,112,0.0,1.3,87,0.00,,,0.00,WUHU21623XXSP,2013-08-30 00:10:00,
2013-08-29 20:15:00,78.1,73.9,29.95,East,90,1.2,1.3,87,0.00,,,0.00,WUHU21623XXSP,2013-08-30 00:15:00,
2013-08-29 20:20:00,78.1,73.9,29.95,East,90,0.0,1.3,87,0.00,,,0.00,WUHU21623XXSP,2013-08-30 00:20:00,
2013-08-29 20:25:00,77.7,73.6,29.95,ESE,112,0.0,1.3,87,0.00,,,0.00,WUHU21623XXSP,2013-08-30 00:25:00,
2013-08-29 20:30:00,77.5,73.4,29.95,ESE,112,0.0,0.0,87,0.00,,,0.00,WUHU21623XXSP,2013-08-30 00:30:00,
2013-08-29 20:35:00,77.2,73.0,29.95,ESE,112,0.0,0.0,87,0.00,,,0.00,WUHU21623XXSP,2013-08-30 00:35:00,
2013-08-29 20:40:00,77.2,73.0,29.95,East,90,0.0,0.0,87,0.00,,,0.00,WUHU21623XXSP,2013-08-30 00:40:00,
2013-08-29 20:45:00,76.8,72.7,29.95,East,90,0.0,0.0,87,0.00,,,0.00,WUHU21623XXSP,2013-08-30 00:45:00,
2013-08-29 20:50:00,76.8,72.7,29.95,East,90,0.0,0.0,87,0.00,,,0.00,WUHU21623XXSP,2013-08-30 00:50:00,
2013-08-29 20:55:00,76.6,72.5,29.95,East,90,0.0,0.0,87,0.00,,,0.00,WUHU21623XXSP,2013-08-30 00:55:00,
2013-08-29 21:00:00,76.3,72.2,29.96,NNE,22,0.0,0.0,87,0.00,,,0.00,WUHU21623XXSP,2013-08-30 01:00:00,
2013-08-29 21:05:00,76.3,72.5,29.96,East,90,0.0,0.0,88,0.00,,,0.00,WUHU21623XXSP,2013-08-30 01:05:00,
2013-08-29 21:10:00,75.9,72.2,29.96,East,90,0.0,0.0,88,0.00,,,0.00,WUHU21623XXSP,2013-08-30 01:10:00,
2013-08-29 21:15:00,75.9,72.2,29.96,East,90,0.0,0.0,88,0.00,,,0.00,WUHU21623XXSP,2013-08-30 01:15:00,
2013-08-29 21:20:00,75.9,72.2,29.96,NNE,22,0.0,0.0,88,0.00,,,0.00,WUHU21623XXSP,2013-08-30 01:20:00,
2013-08-29 21:25:00,75.9,72.2,29.96,East,90,0.0,1.3,88,0.00,,,0.00,WUHU21623XXSP,2013-08-30 01:25:00,
2013-08-29 21:30:00,75.9,72.2,29.96,ESE,112,0.0,1.3,88,0.00,,,0.00,WUHU21623XXSP,2013-08-30 01:30:00,
2013-08-29 21:35:00,75.7,72.0,29.97,ESE,112,0.0,0.0,88,0.00,,,0.00,WUHU21623XXSP,2013-08-30 01:35:00,
2013-08-29 21:40:00,75.4,71.6,29.97,East,90,0.0,0.0,88,0.00,,,0.00,WUHU21623XXSP,2013-08-30 01:40:00,
2013-08-29 21:45:00,75.4,71.6,29.97,East,90,0.0,0.0,88,0.00,,,0.00,WUHU21623XXSP,2013-08-30 01:45:00,
2013-08-29 21:50:00,75.2,71.5,29.97,ESE,112,0.0,0.0,88,0.00,,,0.00,WUHU21623XXSP,2013-08-30 01:50:00,
2013-08-29 21:56:00,75.0,71.3,29.97,ESE,112,0.0,0.0,88,0.00,,,0.00,WUHU21623XXSP,2013-08-30 01:56:00,
2013-08-29 22:01:00,75.0,71.3,29.97,ESE,112,0.0,0.0,88,0.00,,,0.00,WUHU21623XXSP,2013-08-30 02:01:00,
2013-08-29 22:05:00,74.8,71.1,29.97,East,90,1.7,2.4,88,0.00,,,0.00,WUHU21623XXSP,2013-08-30 02:05:00,
2013-08-29 22:10:00,75.0,71.3,29.97,East,90,0.0,2.4,88,0.00,,,0.00,WUHU21623XXSP,2013-08-30 02:10:00,
2013-08-29 22:16:00,75.0,71.3,29.97,ESE,112,0.0,1.9,88,0.00,,,0.00,WUHU21623XXSP,2013-08-30 02:16:00,
2013-08-29 22:20:00,74.8,71.1,29.97,ESE,112,0.0,0.0,88,0.00,,,0.00,WUHU21623XXSP,2013-08-30 02:20:00,
2013-08-29 22:26:00,74.7,70.9,29.97,ESE,112,0.0,0.0,88,0.00,,,0.00,WUHU21623XXSP,2013-08-30 02:26:00,
2013-08-29 22:31:00,74.5,70.7,29.97,East,90,0.0,0.0,88,0.00,,,0.00,WUHU21623XXSP,2013-08-30 02:31:00,
2013-08-29 22:36:00,74.5,70.7,29.97,East,90,0.0,0.0,88,0.00,,,0.00,WUHU21623XXSP,2013-08-30 02:36:00,
2013-08-29 22:41:00,74.3,70.6,29.97,ESE,112,0.0,0.0,88,0.00,,,0.00,WUHU21623XXSP,2013-08-30 02:41:00,
2013-08-29 22:46:00,74.1,70.4,29.97,ESE,112,0.0,0.0,88,0.00,,,0.00,WUHU21623XXSP,2013-08-30 02:46:00,
2013-08-29 22:51:00,74.1,70.4,29.97,ESE,112,0.0,0.0,88,0.00,,,0.00,WUHU21623XXSP,2013-08-30 02:51:00,
2013-08-29 22:56:00,74.1,70.4,29.97,East,90,1.7,1.9,88,0.00,,,0.00,WUHU21623XXSP,2013-08-30 02:56:00,
2013-08-29 23:01:00,73.9,70.2,29.97,ESE,112,0.0,1.9,88,0.00,,,0.00,WUHU21623XXSP,2013-08-30 03:01:00,
2013-08-29 23:06:00,73.9,70.2,29.96,ESE,112,0.0,1.9,88,0.00,,,0.00,WUHU21623XXSP,2013-08-30 03:06:00,
2013-08-29 23:11:00,73.8,70.0,29.96,East,90,0.0,0.0,88,0.00,,,0.00,WUHU21623XXSP,2013-08-30 03:11:00,
2013-08-29 23:16:00,73.6,69.8,29.97,North,0,0.0,0.0,88,0.00,,,0.00,WUHU21623XXSP,2013-08-30 03:16:00,
2013-08-29 23:21:00,73.6,69.8,29.97,East,90,1.2,1.3,88,0.00,,,0.00,WUHU21623XXSP,2013-08-30 03:21:00,
2013-08-29 23:26:00,73.4,69.7,29.97,East,90,0.0,1.3,88,0.00,,,0.00,WUHU21623XXSP,2013-08-30 03:26:00,
2013-08-29 23:31:00,73.4,69.7,29.97,South,180,0.0,1.3,88,0.00,,,0.00,WUHU21623XXSP,2013-08-30 03:31:00,
2013-08-29 23:36:00,73.4,69.7,29.97,NNE,22,0.0,0.0,88,0.00,,,0.00,WUHU21623XXSP,2013-08-30 03:36:00,
2013-08-29 23:41:00,73.6,69.8,29.97,East,90,0.0,0.0,88,0.00,,,0.00,WUHU21623XXSP,2013-08-30 03:41:00,
2013-08-29 23:46:00,73.4,69.7,29.97,NNE,22,0.0,0.0,88,0.00,,,0.00,WUHU21623XXSP,2013-08-30 03:46:00,
2013-08-29 23:51:00,73.2,69.5,29.97,East,90,0.0,0.0,88,0.00,,,0.00,WUHU21623XXSP,2013-08-30 03:51:00,
2013-08-29 23:56:00,73.2,69.5,29.97,East,90,0.0,0.0,88,0.00,,,0.00,WUHU21623XXSP,2013-08-30 03:56:00,